Dewpoint
61 61 61 48 36 29 29 29 27 32 33 35 35 34 47 50 43 46 56 56 61 63 67 68 68 68 67 67 67 68 68 67 68 68 68 68 68 68 68 68 67 67 67 67 67 67 66 66 65
57 54 50 39 27 23 23 27 22 32 36 37 36 37 45 50 52 53 54 56 61 64 65 67 68 68 67 68 68 68 67 67 68 68 68 67 67 67 68 67 67 67 67 67 67 66 66 65 64
51 44 38 35 26 21 22 24 27 36 37 37 40 48 50 51 52 54 54 58 60 62 65 68 68 68 68 68 68 67 67 67 68 67 67 67 67 67 67 67 66 66 66 66 65 65 65 65 65
54 38 39 29 21 22 21 23 37 36 38 40 47 51 54 54 53 54 55 60 62 64 66 68 68 68 68 68 67 67 66 66 67 68 67 67 67 66 66 66 67 67 66 65 65 65 65 64 64
41 34 26 24 21 20 19 31 38 36 37 40 48 50 51 52 55 54 58 62 63 64 66 67 68 68 68 67 67 66 66 65 64 66 66 66 66 66 66 66 67 66 66 65 65 64 63 63 62
34 33 18 17 19 20 18 28 38 38 38 40 51 51 53 54 55 54 61 63 64 65 66 66 67 67 67 66 66 65 65 65 65 64 65 65 66 66 66 65 65 65 65 64 64 63 62 61 60
34 31 23 17 16 15 17 21 37 37 38 41 51 50 53 55 56 54 61 63 64 65 64 65 64 64 64 64 64 64 64 64 64 65 64 63 65 66 65 65 64 65 65 65 64 63 62 61 60
32 28 20 19 14 14 18 18 31 36 38 48 52 50 51 55 56 55 62 62 63 64 63 62 62 62 61 63 63 63 64 63 63 63 63 63 65 65 64 64 64 65 66 66 64 63 62 61 58
31 26 18 17 15 13 19 21 31 41 42 43 46 51 53 57 56 54 60 61 62 62 61 61 60 60 60 63 63 63 63 63 63 63 63 62 62 62 63 63 63 62 63 64 64 63 61 58 55
31 27 23 19 16 12 22 26 36 42 43 44 50 54 55 58 56 55 59 60 60 60 59 61 60 60 61 61 62 62 61 61 60 60 61 60 60 60 61 61 60 59 58 58 58 60 60 58 54
31 26 24 19 16 15 25 28 40 43 44 45 51 54 56 56 56 56 57 59 59 59 60 61 60 60 60 61 62 61 60 59 58 58 59 57 57 58 56 56 55 55 54 53 54 53 50 48 48
27 29 22 18 16 21 26 28 38 41 44 46 54 56 56 55 57 57 56 56 58 59 60 60 60 62 60 62 60 57 57 57 57 57 57 57 58 57 57 56 56 55 54 52 51 49 47 43 41
25 25 24 18 20 23 25 27 36 39 44 46 55 56 55 55 57 56 55 55 54 58 59 59 60 59 61 62 61 57 56 56 56 56 56 56 56 55 54 54 54 52 51 49 47 45 44 42 40
26 24 20 21 21 24 25 29 37 38 40 52 55 55 54 54 57 57 57 56 57 59 60 60 61 60 61 60 60 58 55 55 55 55 54 55 56 56 54 55 54 53 52 50 49 46 45 45 44
24 23 20 19 24 24 28 27 34 38 41 53 54 54 54 54 55 56 57 58 59 59 61 61 61 61 60 59 58 57 56 56 56 55 54 55 55 54 55 55 55 55 53 51 49 48 47 46 46
21 20 16 17 24 26 29 25 34 39 43 49 53 53 54 53 55 56 57 58 60 60 60 61 61 60 60 59 57 56 56 56 55 55 55 54 55 55 55 56 56 55 54 51 50 49 48 49 47
19 16 16 17 23 27 29 25 33 39 44 48 52 54 54 54 55 54 57 57 58 61 60 61 62 61 59 58 57 56 57 55 54 55 55 55 54 54 55 55 55 55 52 51 50 50 50 48 44
15 12 13 14 20 27 28 26 35 39 41 46 50 52 53 54 53 51 54 57 58 60 61 61 61 61 60 59 57 57 57 56 56 54 55 55 54 54 53 56 55 54 52 51 51 50 49 47 41
12 9 9 15 20 24 28 26 35 38 40 43 46 50 51 51 52 51 52 54 58 59 60 61 60 61 61 60 59 58 58 58 57 56 55 54 55 55 53 55 54 53 52 52 51 51 48 47 45
10 7 8 14 20 23 23 24 33 37 38 41 44 47 49 49 49 50 51 52 57 58 59 60 60 60 61 60 60 59 59 58 57 57 56 56 56 56 55 55 54 54 52 51 51 50 48 48 48
12 8 8 18 21 20 19 19 32 37 38 39 43 46 48 49 49 50 51 52 54 56 58 59 60 61 61 60 59 58 58 58 57 58 57 57 56 56 55 55 55 54 53 52 51 50 49 47 46
12 11 14 19 14 11 18 12 30 37 38 38 41 45 47 49 49 50 51 53 53 56 57 59 60 61 59 59 58 57 56 55 56 56 57 57 57 55 55 55 55 54 53 52 50 50 49 48 44
14 12 18 18 14 8 8 10 21 37 38 39 39 46 48 49 50 50 51 52 54 55 57 57 58 58 57 58 57 57 55 55 56 56 57 57 57 55 56 56 56 54 53 52 48 50 48 45 44
17 18 19 19 16 11 11 10 9 25 36 39 40 42 48 50 51 51 52 52 54 56 57 56 57 56 56 58 57 57 55 55 55 56 56 56 57 55 56 55 55 54 53 52 50 49 44 42 41
20 14 13 8 11 11 10 10 5 8 27 38 40 42 44 49 51 52 52 53 53 55 57 58 57 56 56 58 57 56 55 55 54 56 56 56 56 56 55 55 55 53 53 52 49 46 44 41 38
18 11 11 4 7 8 13 7 7 7 12 29 37 41 43 45 49 51 52 53 54 55 57 58 58 56 56 57 57 56 56 55 54 56 57 56 55 55 55 55 55 53 52 50 48 45 42 38 34
20 15 16 13 6 4 8 10 11 10 12 12 20 36 41 44 45 49 51 53 54 55 56 58 58 57 56 56 57 57 57 56 56 56 56 56 55 55 55 55 55 53 51 49 46 42 38 35 34
20 17 12 15 9 5 8 6 7 7 12 16 13 19 34 43 44 46 50 52 55 55 57 58 59 58 57 56 57 57 57 57 56 56 55 55 55 55 55 55 54 52 50 47 42 38 36 34 34
21 17 17 17 19 11 9 10 15 10 11 17 18 21 21 27 38 44 48 51 54 55 57 58 59 59 58 57 57 57 57 57 57 56 55 55 55 55 55 54 53 50 48 44 38 34 33 33 32
22 19 17 14 12 19 18 16 22 24 25 27 26 26 28 27 27 31 40 47 52 54 56 57 58 58 58 58 57 57 57 57 56 56 55 55 54 55 55 54 51 47 44 39 34 31 31 31 31
Wind_Speed
11 11 11 8 5 8 16 22 18 10 8 8 13 4 20 23 4 12 19 22 25 21 17 15 16 18 19 21 21 21 18 18 19 20 20 20 19 20 21 22 22 23 23 24 25 25 24 23 20
14 13 7 4 7 15 17 24 8 10 14 18 10 12 14 8 8 19 16 21 25 21 18 15 19 20 21 22 22 20 19 19 20 20 21 20 20 21 23 23 24 24 24 24 24 24 22 20 17
13 15 4 6 8 19 20 19 15 20 20 15 5 14 8 7 16 13 22 22 24 21 19 18 20 21 23 23 21 20 19 20 23 21 21 21 21 22 23 23 23 22 22 23 23 22 21 19 16
10 3 6 8 16 24 19 18 26 19 18 12 16 11 7 2 16 18 19 24 24 22 20 19 20 21 22 22 22 21 20 20 22 23 21 21 22 22 22 21 20 20 20 22 22 21 20 17 15
9 5 7 11 20 21 22 14 19 19 14 17 18 11 14 14 22 23 19 23 23 22 19 20 21 22 22 21 21 21 21 21 20 20 21 21 21 21 22 20 19 19 19 20 20 20 17 17 15
9 5 11 18 21 22 14 12 18 15 17 16 17 19 6 7 22 20 23 21 21 22 19 18 21 21 21 19 19 21 21 21 19 19 19 19 19 19 19 19 18 18 18 18 19 18 17 16 14
7 9 14 20 18 20 10 11 17 18 17 15 26 12 8 7 21 18 26 23 23 21 20 17 18 20 20 20 21 22 22 22 21 20 18 17 17 18 18 18 18 17 16 17 17 17 16 14 13
6 6 14 14 20 21 14 12 12 18 19 27 17 10 13 16 23 16 27 23 22 20 20 18 17 15 16 16 21 22 22 21 22 19 17 19 18 17 17 16 16 17 17 16 15 15 14 11 9
15 8 20 23 19 19 18 14 11 6 17 14 10 18 27 23 23 19 24 19 22 19 20 19 17 16 15 15 19 21 22 20 18 17 19 17 12 14 15 15 16 15 15 14 13 11 11 10 7
15 16 18 17 22 12 17 18 9 12 21 13 20 29 32 27 22 22 23 23 20 20 20 18 19 17 16 13 15 15 16 13 12 12 10 11 14 14 13 13 14 13 13 11 9 8 7 6 3
18 16 14 21 27 12 19 18 12 17 16 22 32 33 28 29 23 19 20 22 22 23 20 20 17 15 17 14 14 13 12 14 12 9 12 13 14 14 13 12 11 10 10 8 5 4 6 10 8
13 18 17 20 3 4 16 18 18 15 10 21 31 32 33 31 24 24 19 19 25 23 24 19 18 14 14 15 12 11 14 11 10 9 12 13 10 11 11 8 8 6 7 5 7 8 7 7 9
17 23 20 10 5 3 9 16 17 18 18 25 34 31 30 27 22 20 21 18 16 21 22 19 19 14 12 16 13 11 14 13 13 10 7 9 8 7 9 7 7 6 7 7 7 8 9 8 7
16 11 20 5 3 2 3 6 13 11 8 33 33 29 28 28 26 21 21 19 18 20 20 17 19 17 12 10 13 8 13 15 13 10 7 10 9 8 9 8 9 10 9 10 10 7 7 7 10
23 10 18 10 9 4 4 12 15 19 18 29 26 25 27 26 26 24 23 17 19 21 20 19 17 16 15 13 12 9 9 12 12 12 8 10 10 9 9 8 10 8 5 7 7 6 5 6 7
14 7 20 16 14 6 10 18 17 22 24 25 25 23 25 27 27 25 22 17 14 18 21 18 15 17 14 13 12 11 9 10 11 12 7 7 10 10 10 9 10 6 5 5 6 5 5 6 8
17 18 18 18 19 8 12 11 19 18 24 25 25 25 24 26 25 26 28 22 18 17 20 16 13 17 16 13 13 11 11 7 10 13 12 7 10 8 9 12 8 6 5 6 6 5 5 8 7
25 24 22 18 20 11 17 12 24 23 23 27 26 27 26 27 27 24 28 28 26 17 16 16 14 13 15 14 13 12 12 7 5 10 13 10 8 5 8 11 8 7 5 5 5 7 7 5 6
16 17 23 14 14 11 16 14 20 21 22 24 25 28 27 28 28 24 27 24 28 24 20 19 18 14 15 15 16 14 15 9 5 4 12 12 10 7 6 9 6 3 5 5 6 7 8 4 8
22 18 23 10 26 12 15 15 20 19 20 27 28 27 25 24 23 22 25 24 29 28 25 21 20 20 14 15 14 11 14 8 8 9 9 6 10 10 7 9 8 5 6 5 4 5 5 2 1
13 24 17 17 7 2 8 17 19 17 16 17 21 22 22 25 26 23 23 23 23 26 25 24 22 22 17 17 16 14 10 7 7 7 8 8 9 11 8 9 8 6 5 6 4 3 6 6 0
8 18 12 22 13 11 13 10 19 18 16 16 23 27 25 23 24 24 25 24 24 22 23 25 26 25 21 21 19 21 18 15 7 11 9 12 9 14 9 9 9 8 5 7 5 2 2 6 6
4 11 16 18 12 6 16 6 16 22 17 21 19 22 24 22 22 28 26 24 23 23 24 23 23 23 19 21 20 21 16 15 13 13 15 16 11 15 11 10 9 9 7 8 7 3 2 2 7
7 21 20 10 6 8 13 14 13 25 24 21 18 19 24 26 24 21 24 24 22 22 23 22 22 22 21 23 22 23 20 20 17 17 17 17 12 14 14 11 10 10 9 8 7 6 6 6 8
20 22 9 5 8 9 16 16 15 16 27 32 29 24 24 27 28 25 26 26 24 26 25 24 25 25 24 24 24 24 22 23 21 21 17 17 16 13 16 14 12 12 11 10 10 9 9 8 9
20 15 10 9 12 9 3 9 10 27 11 30 31 31 24 21 24 27 26 27 29 30 28 27 27 24 24 23 24 22 20 20 17 21 19 17 18 17 18 18 14 14 14 13 11 10 10 12 11
12 19 5 3 7 11 10 4 6 11 1 5 10 26 28 27 26 29 27 27 28 27 28 28 27 25 24 24 23 25 20 21 20 20 22 19 18 15 18 19 18 17 16 15 14 12 11 12 12
10 11 7 1 9 6 13 16 12 16 12 8 8 8 15 22 22 19 23 23 24 23 22 23 24 26 25 26 24 24 24 20 19 20 22 21 20 20 20 20 18 18 17 17 16 15 13 14 12
6 15 8 6 4 6 7 5 4 16 15 17 15 10 13 9 12 15 15 18 20 19 22 24 25 25 26 26 26 26 25 24 20 19 20 23 21 21 23 22 21 21 20 18 18 17 18 16 13
13 10 17 12 8 3 3 3 10 12 19 22 9 6 4 5 8 8 11 13 18 22 22 24 24 26 27 26 27 27 25 24 22 21 20 22 23 22 23 21 20 20 21 20 21 20 18 21 18
Wind_Direction
179 197 218 215 230 228 240 244 245 82 82 70 70 58 89 31 105 125 143 120 120 123 126 124 116 108 112 110 111 105 98 96 95 95 99 94 92 94 94 91 89 87 86 85 85 85 84 84 84
183 190 230 243 239 227 235 243 190 135 102 86 79 88 64 75 83 130 112 131 119 125 126 120 115 111 115 110 112 114 107 100 94 96 95 92 89 93 91 92 87 85 84 83 83 84 84 82 76
189 208 198 205 223 239 238 231 132 104 116 126 113 62 65 96 111 119 129 125 127 125 116 121 118 115 110 109 109 104 103 97 93 95 95 93 95 92 91 90 90 85 85 85 85 85 82 78 68
198 183 260 241 213 233 254 259 113 124 126 125 98 79 70 114 136 117 138 109 112 108 113 121 117 113 112 112 111 112 106 98 93 96 97 94 93 95 93 90 87 88 87 87 87 85 82 75 63
203 192 223 222 240 236 231 126 127 143 146 135 109 97 108 110 117 124 121 110 111 111 117 119 117 116 112 113 114 113 108 101 95 91 97 95 97 98 96 91 86 87 89 92 92 86 83 75 60
179 231 198 214 224 249 249 128 137 158 164 141 100 114 89 130 127 144 115 111 116 118 116 120 115 112 112 114 114 111 106 102 104 105 103 100 99 97 97 93 90 92 96 96 95 94 85 77 66
193 206 212 203 223 232 220 141 158 177 164 147 132 103 143 170 135 152 123 120 118 122 120 123 116 118 120 118 109 108 106 103 99 94 95 103 95 94 94 92 92 90 95 97 98 92 86 76 61
209 253 222 228 207 221 179 147 194 185 161 122 130 148 166 176 134 158 125 131 126 131 131 128 128 118 112 109 113 107 99 103 101 101 99 99 97 97 91 81 85 87 91 96 96 94 93 84 69
217 224 213 222 229 222 147 155 207 79 128 138 138 148 154 141 145 153 130 132 138 140 134 132 126 120 123 111 110 106 105 103 110 124 132 126 115 86 83 87 88 87 92 97 102 112 115 110 88
193 210 212 215 236 242 144 156 163 136 128 125 85 113 141 140 155 159 142 144 144 131 131 125 133 140 129 129 124 112 115 125 137 146 166 101 104 108 103 101 101 104 106 110 120 130 148 147 116
208 200 201 210 231 261 164 160 155 154 165 152 138 141 145 156 157 165 151 151 148 143 137 140 144 140 139 148 134 144 157 143 170 135 106 105 117 128 130 134 132 135 132 137 147 103 68 54 64
171 222 235 249 8 18 169 167 167 190 175 154 144 147 153 163 164 162 166 160 153 152 140 137 142 147 153 133 147 154 129 142 128 136 131 147 160 177 158 150 140 139 135 94 109 111 117 85 61
222 189 228 254 63 332 317 189 170 205 164 151 138 146 161 164 159 164 168 162 158 130 135 143 147 157 146 147 164 160 141 144 132 134 166 131 126 106 103 126 113 95 78 93 69 75 78 75 79
183 210 211 206 175 234 289 189 153 150 150 129 138 153 165 169 162 163 178 162 150 132 142 150 156 161 172 151 161 155 155 130 138 137 142 125 123 119 110 90 80 65 70 69 67 81 86 72 72
166 200 201 189 188 202 236 206 202 155 141 136 143 156 169 170 168 173 178 157 154 148 153 159 158 159 165 156 166 162 157 134 133 147 146 142 139 133 123 120 105 90 85 117 115 94 94 103 111
172 189 175 186 182 205 175 206 197 158 144 148 150 161 169 175 178 169 179 159 159 160 154 168 163 158 164 170 169 152 141 144 143 131 143 127 131 126 130 117 110 130 114 98 86 102 95 79 85
180 182 175 170 191 150 177 201 181 168 153 159 156 163 171 175 193 171 172 167 174 157 167 162 151 160 159 173 169 159 151 153 147 146 140 144 134 145 141 121 124 123 118 97 110 58 71 103 96
179 175 187 165 182 168 189 232 164 173 167 166 164 166 175 181 190 176 172 170 168 163 160 159 161 170 169 170 171 167 162 153 122 151 152 144 143 151 143 125 136 128 121 120 106 103 59 95 111
154 163 179 167 165 152 189 219 169 181 174 167 168 170 180 183 186 175 172 172 164 167 164 168 178 193 186 170 176 163 152 139 169 89 128 152 153 151 157 126 130 144 154 131 125 127 120 79 120
169 188 176 147 157 166 192 212 178 188 189 174 174 170 176 171 170 170 171 166 166 168 170 173 181 201 208 166 162 151 150 169 168 137 137 153 144 149 153 144 160 144 111 115 131 144 119 101 47
173 188 183 140 109 324 187 217 170 189 205 184 172 168 172 172 172 172 170 170 165 164 170 170 183 197 202 164 152 140 125 127 144 147 165 184 176 160 170 160 149 142 151 150 139 162 161 152 206
185 190 153 132 143 177 193 217 172 175 197 218 177 170 172 178 176 178 176 172 174 171 171 179 186 197 190 160 160 160 174 172 176 177 180 195 191 160 164 160 153 152 139 135 151 158 168 140 162
180 145 135 136 146 174 207 240 187 167 199 213 192 170 171 184 180 184 181 179 175 173 178 185 183 188 178 167 166 170 182 172 167 178 182 189 194 160 163 165 163 155 150 141 143 135 123 83 161
139 104 97 96 147 241 206 194 227 186 186 197 204 190 174 180 203 194 184 182 180 173 174 183 186 186 184 168 173 177 184 174 174 178 182 188 185 165 164 178 170 165 154 147 143 124 119 106 103
132 124 114 131 188 214 208 204 228 196 187 186 198 205 188 184 188 201 185 186 184 182 180 184 190 193 190 172 177 184 191 179 187 175 175 178 181 172 172 177 176 169 158 150 141 136 131 129 123
168 159 164 166 179 167 120 230 227 235 249 193 190 192 192 189 185 193 194 188 191 191 186 186 192 195 193 180 186 189 193 191 193 172 170 179 183 182 175 177 176 167 155 151 149 143 130 123 120
195 218 229 73 127 156 201 254 342 266 96 135 153 183 186 190 192 191 194 192 195 196 193 190 193 195 195 194 188 194 195 191 198 173 169 176 182 184 180 177 174 168 161 158 151 147 143 135 132
195 193 223 272 161 187 184 200 213 224 228 230 223 167 190 192 199 195 188 187 191 194 193 194 196 198 197 198 194 196 200 195 191 178 180 178 182 179 177 177 174 165 164 163 156 154 149 145 147
183 193 227 173 181 175 132 206 205 213 225 211 221 205 195 191 187 191 185 186 184 188 189 195 200 200 202 198 199 198 199 199 191 190 185 181 181 182 172 177 171 167 168 169 162 162 157 158 159
216 221 206 188 187 77 102 91 14 71 61 71 69 85 104 202 176 160 178 181 185 193 197 198 200 204 206 202 200 203 197 193 188 190 192 187 184 177 173 172 166 167 171 171 167 166 166 162 163